User: anonymous   Login
Location: Vancouver
(49.2500°N, 123.1330°W)
Time: 23:07:29
(UTC-07:00)
Language:

ISS - Orbit

View from above orbital plane
View from above orbital plane
View from above satellite
View from above satellite

Ground track
Ground track

The orbit data is extracted from the following two-line orbital elements,

1 25544U 98067A   15087.60433796  .00015026  00000-0  22350-3 0  9998
2 25544 051.6454 126.5842 0007189 149.6943 347.8327 15.55349746935499
Epoch (UTC): 28 March 2015 14:30:14
Eccentricity: 0.0007189
inclination: 51.6454°
perigee height: 396 km
apogee height: 406 km
right ascension of ascending node: 126.5842°
argument of perigee: 149.6943°
revolutions per day: 15.55349746
mean anomaly at epoch: 347.8327°
orbit number at epoch: 93549

The dashed part of the orbit path shows where the satellite is in the earth's shadow,  

DLR